SCP
0 0 0 0 0 0 0 0 0 0 0 0 0 0 0 0 0 0 0 0 0 0 0 0 0 0 0 0 0 0 0 0 0 0 0 0 0 0 0 0 0 0 0 0
0 0 0 0 0 0 0 0 0 0 0 0 0 0 0 0 0 0 0 0 0 0 0 0 0 0 0 0 0 0 0 0 0 0 0 0 0 0 0 0 0 0 0 0
0 0 0 0 0 0 0 0 0 0 0 0 0 -0 -0 0 0 0 0 0 0 0 0 0 0 0 0 0 0 0 0 0 0 0 0 0 0 0 0 0 0 0 0 0
0 0 0 0 0 0 0 0 0 0 0 0 -0 -0 0 0 0 0 0 0 0 0 0 0 0 0 0 0 0 0 0 0 0 0 0 0 0 0 0 0 0 0 0 0
0 0 0 0 0 0 0 0 0 0 0 0 0 0 -0 -0 0 -0 0 0 0 0 0 0 0 0 0 0 0 0 0 0 0 0 0 0 0 0 0 0 0 0 0 0
0 0 0 0 0 0 0 0 0 0 0 0 0 0 -0 0 0 0 0 0 0 0 0 0 0 0 0 0 0 0 0 0 0 0 0 0 0 0 0 0 0 0 0 0
0 0 0 0 0 0 0 0 0 0 0 0 0 0 0 0 0 0 0 0 0 0 0 0 0 0 0 0 0 0 0 0 0 0 0 0 0 0 0 0 0 0 0 0
0 0 0 0 0 0 0 0 0 0 0 0 0 0 0 0 0 0 0 0 0 0 0 0 0 0 0 0 0 0 0 0 0 0 0 0 0 0 0 0 0 0 0 0
0 0 0 0 0 0 0 0 0 0 0 0 0 0 0 0 0 0 0 0 0 0 0 0 0 0 0 0 0 0 0 0 0 0 0 0 0 0 0 0 0 0 0 0
0 0 0 0 0 0 0 0 0 0 0 0 0 0 0 0 0 0 0 0 0 0 0 0 0 0 0 0 0 0 0 0 0 0 0 0 0 0 0 0 0 0 0 0
0 0 0 0 0 0 0 0 0 0 0 0 0 0 0 0 0 0 0 0 0 0 0 0 0 0 0 0 0 0 0 0 0 0 0 0 0 0 0 0 0 0 0 0
0 0 0 0 0 0 0 0 0 0 0 0 0 0 0 0 0 0 0 0 0 0 0 0 0 0 0 0 0 0 0 0 0 0 0 0 0 0 0 0 0 0 0 0
0 0 0 0 0 0 0 0 0 0 0 0 0 0 0 0 0 0 0 0 0 0 0 0 0 0 0 0 0 0 0 0 0 0 0 0 0 0 0 0 0 0 0 0
0 0 0 0 0 0 0 0 0 0 0 0 0 0 0 0 0 0 0 0 0 0 0 0 0 0 0 0 0 0 0 0 0 0 0 0 0 0 0 0 0 0 0 0
0 0 0 0 0 0 0 0 0 0 0 0 0 0 0 0 0 0 0 0 0 0 0 0 0 0 0 0 0 0 0 0 0 0 0 0 0 0 0 0 0 0 0 0
0 0 0 0 0 0 0 0 0 0 0 0 0 0 0 0 0 0 0 0 0 0 0 0 0 0 0 0 0 0 0 0 0 0 0 0 0 0 0 0 0 0 0 0
0 0 0 0 0 0 0 0 0 0 0 0 0 0 0 0 0 0 0 0 0 0 0 0 0 0 0 0 0 0 0 0 0 0 0 0 0 0 0 0 0 0 0 0
0 0 0 0 0 0 0 0 0 0 0 0 0 0 0 0 0 0 0 0 0 0 0 0 0 0 0 0 0 0 0 0 0 0 0 0 0 0 0 0 0 0 0 0
0 0 0 0 0 0 0 0 0 0 0 0 0 0 0 0 0 0 0 0 0 0 0 0 0 0 0 0 0 0 0 0 0 0 0 0 0 0 0 0 0 0 0 0
0 0 0 0 0 0 0 -0 0 0 0 0 0 0 0 0 0 0 0 0 0 0 0 0 0 0 0 0 0 0 0 0 0 0 0 0 0 0 0 0 0 0 0 0
0 0 0 0 0 0 0 0 0 0 0 0 0 0 0 0 0 0 0 0 0 0 0 0 0 0 0 0 0 0 0 0 0 0 0 0 0 0 0 0 0 0 0 0
0 0 0 0 0 0 0 0 0 0 0 0 0 0 0 0 0 0 0 0 0 0 0 0 0 0 0 0 0 0 0 0 0 0 0 0 0 0 0 0 0 0 0 0
0 0 0 0 0 0 0 0 0 0 0 0 0 0 0 0 0 0 0 0 0 0 0 0 0 0 0 0 0 0 0 0 0 0 0 0 0 0 0 0 0 0 0 0
0 0 0 0 0 0 0 0 0 0 0 0 0 0 0 0 0 0 0 0 0 0 0 0 0 0 0 0 0 0 0 0 0 0 0 0 0 0 0 0 0 0 0 0
0 0 0 0 0 0 0 0 0 0 0 0 0 0 0 0 0 0 0 0 0 0 0 0 0 0 0 0 0 0 0 0 0 0 0 0 0 0 0 0 0 0 0 0
0 0 0 0 0 0 0 0 0 0 0 0 0 0 0 0 0 0 0 0 0 0 0 0 0 0 0 0 0 0 0 0 0 0 0 0 0 0 0 0 0 0 0 0
Wind_Speed_500mb
36 21 33 38 39 34 14 29 29 24 14 15 35 42 39 45 47 46 48 47 43 43 39 38 35 35 37 42 51 50 47 41 41 40 42 45 48 50 52 54 54 55 50 53
22 41 33 29 33 35 29 26 31 17 7 14 29 43 39 41 49 58 57 54 55 52 52 51 48 48 49 50 51 52 55 50 45 47 44 46 44 50 53 55 57 60 55 52
39 5 46 33 32 39 39 37 28 22 1 22 30 43 46 39 64 65 64 61 57 57 58 52 46 47 46 45 41 39 44 46 47 46 45 46 47 44 44 49 50 56 59 56
35 49 25 28 38 36 37 33 31 26 13 17 18 22 28 14 19 26 40 54 58 58 59 54 42 37 35 35 38 39 39 41 44 47 50 53 51 47 40 41 39 41 47 48
23 21 43 40 35 35 25 30 26 33 28 28 40 18 14 32 35 27 29 36 42 46 42 36 26 21 24 32 37 40 41 45 50 54 55 56 56 47 33 29 32 32 38 30
46 22 30 38 33 33 12 16 14 18 21 25 41 35 34 34 30 23 27 36 37 35 28 21 23 22 24 26 27 27 25 30 37 39 40 41 36 33 30 29 30 30 26 29
33 31 16 31 31 29 33 30 12 13 15 22 15 30 44 15 10 11 24 35 28 25 24 20 18 21 24 24 24 24 26 28 31 34 38 37 34 34 36 36 34 31 27 27
30 19 41 32 33 20 47 40 15 17 18 23 29 26 20 10 33 26 18 28 34 24 23 22 23 20 19 20 20 22 21 21 24 24 26 30 35 37 37 36 36 34 35 36
28 34 37 33 33 34 39 41 35 22 3 7 20 32 22 15 10 28 34 36 37 31 26 26 21 23 25 25 22 20 19 18 20 18 20 22 26 29 32 32 31 33 35 33
28 20 28 42 36 42 29 29 24 22 15 21 24 32 23 18 26 32 32 37 25 28 29 30 29 27 26 25 22 21 19 19 21 23 23 22 21 19 18 18 17 17 18 19
38 25 12 32 42 42 29 24 21 19 20 16 23 22 27 37 33 30 25 41 39 34 33 32 28 28 29 27 26 24 23 23 23 23 23 22 20 17 13 10 7 5 6 10
51 21 25 36 34 43 45 46 49 16 28 25 30 31 11 10 7 14 34 37 23 36 37 34 33 32 30 30 29 28 27 26 26 24 21 16 12 8 4 2 6 10 13 17
33 17 17 22 23 22 46 44 39 43 25 33 27 28 33 27 14 9 20 20 29 39 39 37 35 33 31 31 30 29 28 25 22 19 15 11 10 10 11 14 19 26 31 33
50 38 31 39 42 25 35 44 50 41 31 38 33 42 46 38 20 28 23 26 35 38 41 37 35 35 37 35 34 31 27 25 22 18 15 12 12 15 17 19 23 25 32 40
51 40 53 56 55 48 40 47 52 53 52 38 52 53 47 43 39 36 35 35 43 47 48 47 42 42 41 37 33 30 26 22 18 13 11 13 14 16 23 27 25 28 32 36
42 32 40 40 55 52 58 40 45 52 59 56 49 45 44 67 55 33 43 47 49 56 55 50 47 47 44 41 36 30 25 20 18 18 16 14 12 14 17 19 22 24 25 27
33 32 25 38 52 54 54 57 56 49 52 52 53 60 55 53 51 41 42 61 62 64 66 59 54 50 48 44 36 30 24 20 19 16 12 9 9 11 14 16 20 23 26 30
27 33 23 27 24 37 31 53 54 58 52 49 56 50 47 62 87 54 46 59 67 61 62 58 52 52 48 40 35 31 27 24 19 13 10 9 7 9 13 18 23 28 31 35
26 28 24 30 40 50 29 46 52 50 63 60 55 55 67 82 25 21 54 65 62 69 69 64 59 53 46 40 34 30 25 19 10 8 12 5 6 11 15 20 25 31 35 40
27 19 14 9 17 15 15 42 41 36 39 45 60 63 56 44 20 35 58 57 62 69 72 69 63 52 45 39 34 28 23 17 18 18 15 5 10 15 19 25 31 36 42 45
13 14 21 23 23 13 27 10 28 24 23 47 60 72 77 34 60 49 47 63 68 68 64 60 55 50 44 36 32 28 23 20 17 14 10 10 17 22 27 33 40 43 46 48
22 18 13 15 15 27 7 19 37 22 7 11 12 40 55 62 38 42 50 54 56 60 58 54 52 46 42 38 35 29 21 15 13 13 13 15 22 28 32 36 38 40 43 47
13 18 9 18 14 4 24 20 24 12 6 6 12 15 24 42 42 47 50 53 52 51 49 46 44 44 40 38 32 30 26 17 14 14 17 20 23 26 28 30 33 38 43 49
6 2 7 1 4 7 14 26 19 19 12 9 14 17 29 41 43 43 47 49 51 55 54 49 44 42 39 34 25 20 18 15 14 15 17 18 20 23 26 30 34 37 41 46
4 6 9 12 11 10 31 33 24 18 18 15 17 22 25 42 47 50 47 46 44 45 48 48 46 40 32 28 24 19 14 12 11 13 15 18 21 25 28 31 34 37 38 44
13 14 13 10 6 8 6 17 40 35 24 24 30 35 35 42 51 54 53 45 45 46 46 44 41 37 34 26 19 13 10 9 9 13 17 20 23 26 29 34 36 37 41 43
Wind_Direction_500mb
194 207 209 207 214 232 317 225 236 221 222 263 244 255 253 249 241 245 256 259 254 249 249 246 242 239 245 248 249 252 255 244 246 244 240 245 247 251 251 248 249 259 249 247
188 226 221 224 223 227 227 248 231 249 264 243 273 269 263 254 251 249 250 251 253 257 254 254 253 252 250 253 255 256 254 246 242 246 245 248 249 259 260 250 248 254 256 247
214 208 206 213 216 220 231 231 236 240 284 253 279 276 261 246 242 244 246 250 253 255 259 258 255 249 251 253 254 253 251 249 247 248 248 247 251 253 261 263 258 248 248 247
230 236 203 198 223 214 230 223 242 248 238 256 171 284 276 285 262 218 246 241 243 249 253 256 255 252 247 246 244 249 255 252 249 246 245 245 247 252 256 258 258 254 254 248
212 203 209 216 214 211 238 229 221 231 242 266 250 264 268 229 241 214 228 233 232 237 242 247 249 243 236 251 253 253 250 247 243 243 244 247 249 243 247 248 247 244 252 247
224 197 231 220 215 214 194 168 178 219 229 244 240 234 256 238 242 242 226 234 229 224 226 229 227 240 244 248 241 239 240 239 244 246 245 240 236 243 238 241 242 252 248 254
222 219 216 217 212 203 189 177 182 211 209 241 214 224 245 287 248 291 265 224 228 207 209 205 218 230 235 242 245 239 238 238 234 230 226 224 216 224 228 228 232 235 242 241
213 212 205 195 205 184 201 194 198 217 225 256 205 237 236 229 247 228 204 231 226 206 193 183 203 216 220 217 218 222 223 229 231 227 223 216 216 221 227 232 238 241 242 244
206 226 178 189 201 196 195 219 225 289 291 273 239 240 265 239 223 211 231 222 213 194 181 195 195 198 200 198 191 194 195 195 200 186 197 210 217 223 230 234 232 233 241 245
229 231 200 193 205 220 195 202 205 223 227 231 248 253 250 193 221 230 227 237 231 191 186 186 184 186 182 185 184 182 186 183 178 177 182 186 180 182 186 197 210 226 238 250
233 239 177 170 202 192 206 221 217 221 231 244 260 250 244 249 240 214 231 237 217 182 182 174 176 175 175 175 174 171 164 156 152 152 153 155 159 162 164 172 182 209 248 268
212 228 224 208 211 217 207 208 204 198 212 224 248 250 131 73 23 257 243 240 198 181 180 176 173 172 170 171 167 163 156 153 148 144 140 137 134 137 151 239 277 277 277 286
189 212 218 220 217 234 221 214 221 232 250 232 226 254 249 242 201 240 254 228 179 180 180 176 174 173 173 174 173 172 168 163 158 157 164 174 196 217 246 271 290 300 300 299
201 219 224 227 226 191 206 224 222 226 232 237 239 249 253 253 249 230 223 197 189 185 183 184 179 179 182 184 185 183 182 181 182 186 195 216 248 271 279 288 294 295 296 300
217 225 230 241 252 260 219 217 220 220 227 225 236 237 252 256 254 246 203 196 187 190 191 189 186 190 193 195 196 196 194 197 204 216 238 260 272 281 291 296 298 306 311 309
217 234 231 242 242 242 250 246 236 227 227 234 244 249 248 256 255 230 208 193 193 198 197 192 191 195 197 200 201 203 210 221 232 239 246 254 274 291 294 303 309 312 316 323
220 230 224 229 232 239 243 241 238 238 232 230 233 237 242 250 253 238 200 200 198 197 194 190 196 198 201 202 203 208 211 214 221 228 237 253 268 288 302 310 316 322 328 330
210 222 221 235 239 241 239 239 236 237 239 238 241 246 247 244 252 249 226 201 206 198 188 194 196 200 202 201 202 204 205 208 214 222 226 240 278 301 315 321 323 325 327 327
217 220 240 240 240 248 274 229 223 220 230 231 235 238 243 248 266 259 214 211 206 194 194 192 197 200 198 199 200 202 201 202 201 253 266 248 291 299 308 316 319 321 322 322
220 235 233 220 229 207 197 224 231 232 234 237 230 239 242 230 234 245 212 195 190 184 191 193 197 195 197 197 198 196 194 197 220 228 246 282 321 322 323 323 324 325 324 323
198 227 233 244 245 258 257 133 158 193 224 240 237 238 238 220 226 246 199 186 189 190 189 192 189 190 192 193 193 190 184 193 200 230 281 320 320 324 326 328 326 327 328 329
183 181 205 223 249 248 189 141 191 221 317 300 259 243 249 228 214 186 177 174 179 184 179 183 182 183 183 185 184 184 198 206 221 245 283 307 315 320 322 324 327 331 332 333
224 217 219 209 216 42 174 222 193 216 305 302 293 282 204 167 159 164 163 168 173 173 171 177 179 177 176 177 178 191 196 206 234 270 298 305 314 319 324 328 329 332 333 333
258 110 241 29 183 259 249 242 237 226 217 257 244 211 180 161 161 157 161 162 168 173 172 176 175 173 170 173 181 194 207 230 253 280 298 312 322 326 326 327 329 331 331 331
354 127 224 254 250 276 243 234 235 229 222 201 198 178 175 175 162 166 159 161 166 168 168 170 171 172 175 181 188 200 220 253 282 301 314 321 322 322 325 328 330 332 335 336
182 204 199 238 355 262 221 248 214 210 204 200 185 168 169 176 166 169 164 165 167 168 166 168 168 171 178 187 198 218 246 273 296 307 314 320 324 326 329 331 332 335 334 337
Wind_Speed_850mb
36 21 33 38 39 34 14 29 29 24 14 15 35 42 39 45 47 46 48 47 43 43 39 38 35 35 37 42 51 50 47 41 41 40 42 45 48 50 52 54 54 55 50 53
22 41 33 29 33 35 29 26 31 17 7 14 29 43 39 41 49 58 57 54 55 52 52 51 48 48 49 50 51 52 55 50 45 47 44 46 44 50 53 55 57 60 55 52
39 5 46 33 32 39 39 37 28 22 1 22 30 43 46 39 64 65 64 61 57 57 58 52 46 47 46 45 41 39 44 46 47 46 45 46 47 44 44 49 50 56 59 56
35 49 25 28 38 36 37 33 31 26 13 17 18 22 28 14 19 26 40 54 58 58 59 54 42 37 35 35 38 39 39 41 44 47 50 53 51 47 40 41 39 41 47 48
23 21 43 40 35 35 25 30 26 33 28 28 40 18 14 32 35 27 29 36 42 46 42 36 26 21 24 32 37 40 41 45 50 54 55 56 56 47 33 29 32 32 38 30
46 22 30 38 33 33 12 16 14 18 21 25 41 35 34 34 30 23 27 36 37 35 28 21 23 22 24 26 27 27 25 30 37 39 40 41 36 33 30 29 30 30 26 29
33 31 16 31 31 29 33 30 12 13 15 22 15 30 44 15 10 11 24 35 28 25 24 20 18 21 24 24 24 24 26 28 31 34 38 37 34 34 36 36 34 31 27 27
30 19 41 32 33 20 47 40 15 17 18 23 29 26 20 10 33 26 18 28 34 24 23 22 23 20 19 20 20 22 21 21 24 24 26 30 35 37 37 36 36 34 35 36
28 34 37 33 33 34 39 41 35 22 3 7 20 32 22 15 10 28 34 36 37 31 26 26 21 23 25 25 22 20 19 18 20 18 20 22 26 29 32 32 31 33 35 33
28 20 28 42 36 42 29 29 24 22 15 21 24 32 23 18 26 32 32 37 25 28 29 30 29 27 26 25 22 21 19 19 21 23 23 22 21 19 18 18 17 17 18 19
38 25 12 32 42 42 29 24 21 19 20 16 23 22 27 37 33 30 25 41 39 34 33 32 28 28 29 27 26 24 23 23 23 23 23 22 20 17 13 10 7 5 6 10
51 21 25 36 34 43 45 46 49 16 28 25 30 31 11 10 7 14 34 37 23 36 37 34 33 32 30 30 29 28 27 26 26 24 21 16 12 8 4 2 6 10 13 17
33 17 17 22 23 22 46 44 39 43 25 33 27 28 33 27 14 9 20 20 29 39 39 37 35 33 31 31 30 29 28 25 22 19 15 11 10 10 11 14 19 26 31 33
50 38 31 39 42 25 35 44 50 41 31 38 33 42 46 38 20 28 23 26 35 38 41 37 35 35 37 35 34 31 27 25 22 18 15 12 12 15 17 19 23 25 32 40
51 40 53 56 55 48 40 47 52 53 52 38 52 53 47 43 39 36 35 35 43 47 48 47 42 42 41 37 33 30 26 22 18 13 11 13 14 16 23 27 25 28 32 36
42 32 40 40 55 52 58 40 45 52 59 56 49 45 44 67 55 33 43 47 49 56 55 50 47 47 44 41 36 30 25 20 18 18 16 14 12 14 17 19 22 24 25 27
33 32 25 38 52 54 54 57 56 49 52 52 53 60 55 53 51 41 42 61 62 64 66 59 54 50 48 44 36 30 24 20 19 16 12 9 9 11 14 16 20 23 26 30
27 33 23 27 24 37 31 53 54 58 52 49 56 50 47 62 87 54 46 59 67 61 62 58 52 52 48 40 35 31 27 24 19 13 10 9 7 9 13 18 23 28 31 35
26 28 24 30 40 50 29 46 52 50 63 60 55 55 67 82 25 21 54 65 62 69 69 64 59 53 46 40 34 30 25 19 10 8 12 5 6 11 15 20 25 31 35 40
27 19 14 9 17 15 15 42 41 36 39 45 60 63 56 44 20 35 58 57 62 69 72 69 63 52 45 39 34 28 23 17 18 18 15 5 10 15 19 25 31 36 42 45
13 14 21 23 23 13 27 10 28 24 23 47 60 72 77 34 60 49 47 63 68 68 64 60 55 50 44 36 32 28 23 20 17 14 10 10 17 22 27 33 40 43 46 48
22 18 13 15 15 27 7 19 37 22 7 11 12 40 55 62 38 42 50 54 56 60 58 54 52 46 42 38 35 29 21 15 13 13 13 15 22 28 32 36 38 40 43 47
13 18 9 18 14 4 24 20 24 12 6 6 12 15 24 42 42 47 50 53 52 51 49 46 44 44 40 38 32 30 26 17 14 14 17 20 23 26 28 30 33 38 43 49
6 2 7 1 4 7 14 26 19 19 12 9 14 17 29 41 43 43 47 49 51 55 54 49 44 42 39 34 25 20 18 15 14 15 17 18 20 23 26 30 34 37 41 46
4 6 9 12 11 10 31 33 24 18 18 15 17 22 25 42 47 50 47 46 44 45 48 48 46 40 32 28 24 19 14 12 11 13 15 18 21 25 28 31 34 37 38 44
13 14 13 10 6 8 6 17 40 35 24 24 30 35 35 42 51 54 53 45 45 46 46 44 41 37 34 26 19 13 10 9 9 13 17 20 23 26 29 34 36 37 41 43
Wind_Direction_850mb
194 207 209 207 214 232 317 225 236 221 222 263 244 255 253 249 241 245 256 259 254 249 249 246 242 239 245 248 249 252 255 244 246 244 240 245 247 251 251 248 249 259 249 247
188 226 221 224 223 227 227 248 231 249 264 243 273 269 263 254 251 249 250 251 253 257 254 254 253 252 250 253 255 256 254 246 242 246 245 248 249 259 260 250 248 254 256 247
214 208 206 213 216 220 231 231 236 240 284 253 279 276 261 246 242 244 246 250 253 255 259 258 255 249 251 253 254 253 251 249 247 248 248 247 251 253 261 263 258 248 248 247
230 236 203 198 223 214 230 223 242 248 238 256 171 284 276 285 262 218 246 241 243 249 253 256 255 252 247 246 244 249 255 252 249 246 245 245 247 252 256 258 258 254 254 248
212 203 209 216 214 211 238 229 221 231 242 266 250 264 268 229 241 214 228 233 232 237 242 247 249 243 236 251 253 253 250 247 243 243 244 247 249 243 247 248 247 244 252 247
224 197 231 220 215 214 194 168 178 219 229 244 240 234 256 238 242 242 226 234 229 224 226 229 227 240 244 248 241 239 240 239 244 246 245 240 236 243 238 241 242 252 248 254
222 219 216 217 212 203 189 177 182 211 209 241 214 224 245 287 248 291 265 224 228 207 209 205 218 230 235 242 245 239 238 238 234 230 226 224 216 224 228 228 232 235 242 241
213 212 205 195 205 184 201 194 198 217 225 256 205 237 236 229 247 228 204 231 226 206 193 183 203 216 220 217 218 222 223 229 231 227 223 216 216 221 227 232 238 241 242 244
206 226 178 189 201 196 195 219 225 289 291 273 239 240 265 239 223 211 231 222 213 194 181 195 195 198 200 198 191 194 195 195 200 186 197 210 217 223 230 234 232 233 241 245
229 231 200 193 205 220 195 202 205 223 227 231 248 253 250 193 221 230 227 237 231 191 186 186 184 186 182 185 184 182 186 183 178 177 182 186 180 182 186 197 210 226 238 250
233 239 177 170 202 192 206 221 217 221 231 244 260 250 244 249 240 214 231 237 217 182 182 174 176 175 175 175 174 171 164 156 152 152 153 155 159 162 164 172 182 209 248 268
212 228 224 208 211 217 207 208 204 198 212 224 248 250 131 73 23 257 243 240 198 181 180 176 173 172 170 171 167 163 156 153 148 144 140 137 134 137 151 239 277 277 277 286
189 212 218 220 217 234 221 214 221 232 250 232 226 254 249 242 201 240 254 228 179 180 180 176 174 173 173 174 173 172 168 163 158 157 164 174 196 217 246 271 290 300 300 299
201 219 224 227 226 191 206 224 222 226 232 237 239 249 253 253 249 230 223 197 189 185 183 184 179 179 182 184 185 183 182 181 182 186 195 216 248 271 279 288 294 295 296 300
217 225 230 241 252 260 219 217 220 220 227 225 236 237 252 256 254 246 203 196 187 190 191 189 186 190 193 195 196 196 194 197 204 216 238 260 272 281 291 296 298 306 311 309
217 234 231 242 242 242 250 246 236 227 227 234 244 249 248 256 255 230 208 193 193 198 197 192 191 195 197 200 201 203 210 221 232 239 246 254 274 291 294 303 309 312 316 323
220 230 224 229 232 239 243 241 238 238 232 230 233 237 242 250 253 238 200 200 198 197 194 190 196 198 201 202 203 208 211 214 221 228 237 253 268 288 302 310 316 322 328 330
210 222 221 235 239 241 239 239 236 237 239 238 241 246 247 244 252 249 226 201 206 198 188 194 196 200 202 201 202 204 205 208 214 222 226 240 278 301 315 321 323 325 327 327
217 220 240 240 240 248 274 229 223 220 230 231 235 238 243 248 266 259 214 211 206 194 194 192 197 200 198 199 200 202 201 202 201 253 266 248 291 299 308 316 319 321 322 322
220 235 233 220 229 207 197 224 231 232 234 237 230 239 242 230 234 245 212 195 190 184 191 193 197 195 197 197 198 196 194 197 220 228 246 282 321 322 323 323 324 325 324 323
198 227 233 244 245 258 257 133 158 193 224 240 237 238 238 220 226 246 199 186 189 190 189 192 189 190 192 193 193 190 184 193 200 230 281 320 320 324 326 328 326 327 328 329
183 181 205 223 249 248 189 141 191 221 317 300 259 243 249 228 214 186 177 174 179 184 179 183 182 183 183 185 184 184 198 206 221 245 283 307 315 320 322 324 327 331 332 333
224 217 219 209 216 42 174 222 193 216 305 302 293 282 204 167 159 164 163 168 173 173 171 177 179 177 176 177 178 191 196 206 234 270 298 305 314 319 324 328 329 332 333 333
258 110 241 29 183 259 249 242 237 226 217 257 244 211 180 161 161 157 161 162 168 173 172 176 175 173 170 173 181 194 207 230 253 280 298 312 322 326 326 327 329 331 331 331
354 127 224 254 250 276 243 234 235 229 222 201 198 178 175 175 162 166 159 161 166 168 168 170 171 172 175 181 188 200 220 253 282 301 314 321 322 322 325 328 330 332 335 336
182 204 199 238 355 262 221 248 214 210 204 200 185 168 169 176 166 169 164 165 167 168 166 168 168 171 178 187 198 218 246 273 296 307 314 320 324 326 329 331 332 335 334 337